TimeMST,TemperatureF,Dew PointF,Humidity,Sea Level PressureIn,VisibilityMPH,Wind Direction,Wind SpeedMPH,Gust SpeedMPH,PrecipitationIn,Events,Conditions,WindDirDegrees,DateUTC
12:07 AM,28.4,28.4,100,30.02,1.5,NE,4.6,-,N/A,,Overcast,40,2012-11-26 07:07:00
12:27 AM,28.4,26.6,93,30.02,3.0,NNW,8.1,-,N/A,,Overcast,330,2012-11-26 07:27:00
12:53 AM,28.9,27.0,92,29.96,4.0,North,8.1,-,N/A,,Overcast,360,2012-11-26 07:53:00
1:34 AM,28.4,26.6,93,30.03,2.5,North,9.2,-,N/A,,Overcast,10,2012-11-26 08:34:00
1:46 AM,28.4,26.6,93,30.04,4.0,North,6.9,-,N/A,,Overcast,350,2012-11-26 08:46:00
1:53 AM,28.9,27.0,92,29.99,5.0,NNW,10.4,-,N/A,,Overcast,340,2012-11-26 08:53:00
2:22 AM,28.4,26.6,93,30.05,1.8,North,9.2,-,N/A,,Overcast,10,2012-11-26 09:22:00
2:31 AM,28.4,26.6,93,30.05,3.0,North,10.4,-,N/A,,Overcast,350,2012-11-26 09:31:00
2:53 AM,28.0,27.0,96,30.05,6.0,North,10.4,-,N/A,,Overcast,360,2012-11-26 09:53:00
3:41 AM,26.6,24.8,93,30.08,2.5,North,11.5,-,N/A,,Overcast,360,2012-11-26 10:41:00
3:51 AM,26.6,24.8,93,30.08,3.0,North,13.8,-,N/A,,Overcast,360,2012-11-26 10:51:00
3:53 AM,26.1,24.1,92,30.09,4.0,North,12.7,-,N/A,,Overcast,10,2012-11-26 10:53:00
4:53 AM,24.1,21.9,91,30.15,10.0,North,13.8,-,N/A,,Overcast,10,2012-11-26 11:53:00
5:19 AM,23.0,21.2,93,30.14,4.0,North,12.7,-,0.00,Snow,Light Snow,360,2012-11-26 12:19:00
5:30 AM,23.0,21.2,93,30.16,7.0,North,12.7,18.4,0.00,Snow,Light Snow,360,2012-11-26 12:30:00
5:53 AM,21.9,21.0,96,30.22,9.0,North,5.8,-,0.00,,Overcast,10,2012-11-26 12:53:00
6:53 AM,21.0,19.0,92,30.30,10.0,NE,9.2,-,0.00,,Overcast,40,2012-11-26 13:53:00
7:08 AM,21.2,19.4,93,30.23,10.0,Calm,Calm,-,N/A,,Overcast,0,2012-11-26 14:08:00
7:43 AM,21.2,19.4,93,30.24,10.0,NNE,5.8,-,N/A,,Overcast,20,2012-11-26 14:43:00
7:53 AM,21.9,19.0,89,30.33,10.0,NE,5.8,-,N/A,,Overcast,40,2012-11-26 14:53:00
8:53 AM,21.9,19.0,89,30.39,10.0,NNW,5.8,-,N/A,,Overcast,330,2012-11-26 15:53:00
9:53 AM,24.1,19.0,81,30.39,10.0,NNW,11.5,-,N/A,,Partly Cloudy,340,2012-11-26 16:53:00
10:53 AM,28.0,19.9,72,30.38,10.0,NNE,4.6,-,N/A,,Scattered Clouds,20,2012-11-26 17:53:00
11:49 AM,30.2,21.2,69,30.25,10.0,Calm,Calm,-,N/A,,Mostly Cloudy,0,2012-11-26 18:49:00
11:53 AM,30.0,19.9,66,30.35,10.0,NE,5.8,-,N/A,,Mostly Cloudy,50,2012-11-26 18:53:00
12:53 PM,28.9,19.0,67,30.33,10.0,South,8.1,-,N/A,,Overcast,180,2012-11-26 19:53:00
1:53 PM,28.0,19.9,72,30.32,10.0,SSW,10.4,-,N/A,,Overcast,200,2012-11-26 20:53:00
2:53 PM,28.0,19.9,72,30.31,10.0,South,13.8,-,N/A,,Overcast,190,2012-11-26 21:53:00
3:53 PM,28.0,19.9,72,30.31,10.0,SSW,15.0,-,N/A,,Overcast,210,2012-11-26 22:53:00
4:43 PM,26.6,19.4,74,30.20,10.0,SSW,17.3,-,N/A,,Overcast,200,2012-11-26 23:43:00
4:53 PM,26.1,19.9,78,30.34,10.0,SW,16.1,-,N/A,,Overcast,220,2012-11-26 23:53:00
5:53 PM,25.0,19.0,78,30.35,10.0,SSW,17.3,-,N/A,,Overcast,210,2012-11-27 00:53:00
6:53 PM,24.1,19.0,81,30.35,10.0,SSW,11.5,-,N/A,,Mostly Cloudy,200,2012-11-27 01:53:00
7:05 PM,24.8,19.4,80,30.19,10.0,SSW,12.7,-,N/A,,Scattered Clouds,210,2012-11-27 02:05:00
7:53 PM,24.1,18.0,77,30.35,10.0,SSW,19.6,24.2,N/A,,Clear,210,2012-11-27 02:53:00
8:53 PM,23.0,19.0,85,30.34,9.0,SSW,18.4,-,N/A,,Clear,210,2012-11-27 03:53:00
9:53 PM,23.0,19.0,85,30.32,7.0,SSW,15.0,-,N/A,,Clear,210,2012-11-27 04:53:00
10:53 PM,21.9,19.0,89,30.30,6.0,SW,12.7,-,N/A,,Clear,220,2012-11-27 05:53:00
11:53 PM,21.0,18.0,88,30.27,7.0,South,8.1,-,N/A,,Clear,190,2012-11-27 06:53:00